Location: Caixon
(43.4106°N, 0.0273°E)
Time: 01:33:06
(UTC+00:00)

Daily predictions for brighter satellites

Satellite Brightness Start Highest point End
(mag) Time Altitude Azimuth Time Altitude Azimuth Time Altitude Azimuth
Cosmos 2237 Rocket 4.1 03:43:06 25° ENE 03:43:06 25° ENE 03:45:57 10° NE
BREEZE-M DEB (TANK) 4.4 03:55:50 68° NNE 03:55:50 68° NNE 04:00:42 10° E
Lacrosse 4 Rocket 4.2 04:04:26 16° ENE 04:04:26 16° ENE 04:05:50 10° ENE
Gbstr 26 Del rocket 4.4 04:13:50 77° ESE 04:13:50 77° ESE 04:21:39 10° ENE
Cosmos 1464 Rocket 4.4 04:13:46 57° ESE 04:14:06 58° E 04:20:08 10° NNE
FALCON 9 R/B 4.1 04:24:54 16° S 04:24:54 16° S 04:26:02 10° SSE
Atlas Centaur 2 3.9 04:26:50 29° S 04:26:52 29° S 04:33:25 10° SE
ATLAS CENTAUR R/B 3.9 04:31:45 16° NE 04:31:45 16° NE 04:32:35 10° NE
METEOR-M 4.3 04:29:22 10° NNE 04:34:34 68° E 04:34:34 68° E
Lacrosse 5 rocket 3.9 04:40:11 13° SE 04:40:11 13° SE 04:40:34 10° SE
Cosmos 372 Rocket 4.2 04:40:33 66° ENE 04:40:38 66° ENE 04:45:49 10° SSE
USA 307 4.2 04:44:43 39° ENE 04:44:43 39° ENE 04:47:27 10° ENE
USA 215 4.0 04:37:28 10° NE 04:43:15 36° NNW 04:43:15 36° NNW
NOSS 0 Rocket 4.2 04:45:41 51° NNW 04:45:41 51° NNW 04:50:35 10° NNE
ADEOS 3.8 04:39:54 10° NNE 04:45:07 69° ESE 04:47:41 30° S
USA 305 3.9 04:50:49 44° ENE 04:50:49 44° ENE 04:53:47 10° NE
Nadezhda 4 Rocket 4.0 04:43:24 10° N 04:49:32 74° E 04:55:39 10° SSE
USA 308 3.7 04:53:18 50° ENE 04:53:18 50° ENE 04:56:31 10° NE
Cosmos 1400 Rocket 3.6 04:53:19 52° E 04:53:19 52° E 04:57:09 10° NNE
SL-4 R/B 3.3 04:55:30 33° NE 04:55:30 33° NE 04:57:50 10° NE
Cosmos 2034 Rocket 4.0 04:49:15 10° S 04:55:38 85° E 05:02:01 10° N
Cosmos 1943 Rocket 3.8 04:51:10 11° N 04:56:02 31° NE 05:01:01 10° ESE
Meteor 1-16 Rocket 4.4 04:50:43 10° S 04:56:36 76° E 05:02:32 10° NNE
Cosmos 1570 Rocket 4.0 04:57:36 64° NNW 04:57:36 64° NNW 05:02:11 10° NNE
Cosmos 540 Rocket 4.4 05:01:40 34° N 05:01:40 34° N 05:04:44 10° NNE
CZ-4B R/B 3.9 04:56:39 10° SSE 04:57:25 16° SSE 04:57:25 16° SSE
USA 306 3.3 05:02:36 57° NE 05:02:36 57° NE 05:06:03 10° NE
SJ-12 4.1 04:59:10 10° NNE 05:03:20 70° ESE 05:04:11 52° SSE
NOSS 3-2 (A) 3.5 05:00:28 30° SSW 05:03:23 71° ESE 05:09:42 10° NE
Cosmos 1814 Rocket 3.8 05:03:50 71° NW 05:03:50 71° NW 05:08:44 10° NNE
Cosmos 2369 Rocket 4.2 05:01:50 10° N 05:06:15 23° NE 05:10:38 10° ESE
COSMO-SKYMED 1 2.6 05:06:35 10° SSE 05:10:55 81° ENE 05:12:33 38° N
CZ-4B R/B 3.4 05:08:46 10° NNE 05:12:22 53° E 05:16:06 10° S
CZ-4B R/B 4.2 05:09:49 10° N 05:13:34 57° NNW 05:13:34 57° NNW
USA 267 4.0 05:10:34 10° S 05:16:16 32° SW 05:16:23 32° SW
Cosmos 2278 Rocket 3.3 05:18:36 26° SW 05:18:36 26° SW 05:21:36 10° SSW
SL-16 R/B 2.3 05:11:01 10° SSW 05:16:38 73° ESE 05:22:18 10° NNE
NOSS 3-2 (C) 4.0 05:11:44 10° SSW 05:17:05 53° ESE 05:23:11 10° NE
CZ-2C R/B 2.9 05:19:17 24° SSW 05:19:30 24° S 05:22:53 10° SE
Cosmos 972 Rocket 4.4 05:14:48 10° S 05:21:10 79° ESE 05:26:50 10° NNE
Cosmos 2219 Rocket 4.2 05:23:36 13° NNW 05:23:36 13° NNW 05:24:44 10° N
ERS-2 2.2 05:20:02 10° SSE 05:23:39 72° ENE 05:25:10 33° N
CENTAUR R/B 2.8 05:18:35 10° SSW 05:24:16 64° ESE 05:31:02 10° NE
Cosmos 2237 Rocket 2.7 05:24:59 37° NW 05:24:59 37° NW 05:30:09 10° N
Cosmos 2208 Rocket 4.1 05:23:25 41° WSW 05:24:54 53° WNW 05:30:13 10° NNE
ATLAS 5 CENTAUR R/B 2.5 05:25:47 35° SSW 05:25:47 35° SSW 05:29:58 10° SSE
Cosmos 2026 Rocket 4.4 05:18:55 10° N 05:25:17 67° E 05:31:37 10° SSE
H-2A R/B 3.0 05:25:39 10° NNE 05:29:22 65° ESE 05:33:06 10° S
FALCON 9 DEB 3.4 05:30:00 50° S 05:30:21 54° SE 05:33:25 10° ENE
Meteor PRIRODA 3.4 05:30:24 10° NNE 05:34:02 87° WNW 05:37:40 10° SSW
Cosmos 1626 Rocket 3.9 05:37:41 41° WNW 05:38:08 42° W 05:42:19 10° SSW
Cosmos 1703 3.7 05:39:02 41° WSW 05:39:02 41° WSW 05:42:14 10° SSW
FALCON 9 DEB 2.9 05:38:25 62° SSW 05:38:49 77° SE 05:41:56 10° ENE
Lacrosse 4 Rocket 1.9 05:40:48 37° WNW 05:40:54 38° NW 05:45:00 10° NNE
Cosmos 1300 2.7 05:40:49 10° S 05:44:36 79° E 05:48:26 10° N
Meteor 1-11 4.1 05:40:27 10° NNW 05:46:03 84° W 05:51:39 10° S
SAR-Lupe-4 3.4 05:43:40 10° S 05:47:14 77° WSW 05:50:19 14° NNW
Cosmos 1315 Rocket 2.9 05:45:15 10° S 05:49:08 76° E 05:53:04 10° NNE
[s.n.47389] 4.1 05:48:24 17° SSW 05:49:54 31° SE 05:52:15 10° ENE
[s.n.47399] 4.1 05:48:26 17° SSW 05:49:57 31° SE 05:52:17 10° ENE
[s.n.47393] 4.1 05:48:28 17° SSW 05:49:58 31° SE 05:52:19 10° ENE
[s.n.47353] 4.1 05:48:32 17° SSW 05:50:03 31° SE 05:52:24 10° ENE
[s.n.47355] 4.1 05:48:35 17° SSW 05:50:06 31° SE 05:52:28 10° ENE
[s.n.47365] 4.1 05:48:37 17° SSW 05:50:09 31° SE 05:52:31 10° ENE
[s.n.47383] 4.1 05:48:43 17° SSW 05:50:14 31° SE 05:52:35 10° ENE
[s.n.47400] 4.1 05:48:40 17° SSW 05:50:15 32° SE 05:52:40 10° ENE
[s.n.47378] 4.1 05:48:48 17° SSW 05:50:19 32° SE 05:52:42 10° ENE
[s.n.47395] 4.1 05:48:51 17° SSW 05:50:22 32° SE 05:52:44 10° ENE
[s.n.47379] 4.1 05:48:57 17° SSW 05:50:28 32° SE 05:52:51 10° ENE
[s.n.47370] 4.1 05:48:57 17° SSW 05:50:29 32° SE 05:52:51 10° ENE
[s.n.47351] 4.1 05:48:57 17° SSW 05:50:32 32° SE 05:52:57 10° ENE
[s.n.47394] 4.1 05:49:02 17° SSW 05:50:35 32° SE 05:52:58 10° ENE
[s.n.47354] 4.1 05:49:07 17° SSW 05:50:39 32° SE 05:53:01 10° ENE
[s.n.47360] 4.1 05:49:08 17° SSW 05:50:41 32° SE 05:53:04 10° ENE
[s.n.47369] 4.1 05:49:13 17° SSW 05:50:46 32° SE 05:53:09 10° ENE
[s.n.47406] 4.1 05:49:15 17° SSW 05:50:48 32° SE 05:53:11 10° ENE
[s.n.47384] 4.1 05:49:18 17° SSW 05:50:51 32° SE 05:53:14 10° ENE
[s.n.47356] 4.1 05:49:21 17° SSW 05:50:54 32° SE 05:53:17 10° ENE
[s.n.47407] 4.1 05:49:24 17° SSW 05:50:58 32° SE 05:53:21 10° ENE
[s.n.47385] 4.1 05:49:22 16° SSW 05:51:00 33° SE 05:53:26 10° ENE
[s.n.47358] 4.1 05:49:32 17° SSW 05:51:05 32° SE 05:53:28 10° ENE
[s.n.47398] 4.1 05:49:33 17° SSW 05:51:07 32° SE 05:53:30 10° ENE
[s.n.47361] 4.1 05:49:37 17° SSW 05:51:11 32° SE 05:53:34 10° ENE
[s.n.47392] 4.1 05:49:39 17° SSW 05:51:13 32° SE 05:53:35 10° ENE
[s.n.47382] 4.1 05:49:43 17° SSW 05:51:17 32° SE 05:53:39 10° ENE
[s.n.47359] 4.1 05:49:43 16° SSW 05:51:19 33° SE 05:53:44 10° ENE
[s.n.47401] 4.1 05:49:50 17° SSW 05:51:25 32° SE 05:53:47 10° ENE
[s.n.47380] 4.1 05:49:47 16° SSW 05:51:26 33° SE 05:53:51 10° ENE
[s.n.47386] 4.1 05:49:57 17° SSW 05:51:31 33° SE 05:53:54 10° ENE
[s.n.47408] 4.1 05:49:55 16° SSW 05:51:33 33° SE 05:53:59 10° ENE
[s.n.47396] 4.1 05:50:02 17° SSW 05:51:37 33° SE 05:54:00 10° ENE
[s.n.47391] 4.1 05:50:04 17° SSW 05:51:39 33° SE 05:54:03 10° ENE
[s.n.47402] 4.1 05:50:08 17° SSW 05:51:43 33° SE 05:54:06 10° ENE
[s.n.47404] 4.1 05:50:11 17° SSW 05:51:46 33° SE 05:54:10 10° ENE
deb Chang Zheng 4 3.7 05:47:43 10° N 05:51:48 46° WNW 05:55:50 10° SW
[s.n.47403] 4.0 05:50:14 17° SSW 05:51:50 33° SE 05:54:13 10° ENE
[s.n.47381] 4.0 05:50:17 17° SSW 05:51:53 33° SE 05:54:16 10° ENE
[s.n.47372] 4.0 05:50:21 17° SSW 05:51:57 33° SE 05:54:20 10° ENE
[s.n.47405] 4.0 05:50:23 17° SSW 05:51:59 33° SE 05:54:23 10° ENE
[s.n.47368] 4.0 05:50:28 16° SSW 05:52:04 33° SE 05:54:27 10° ENE
[s.n.47350] 4.0 05:50:30 16° SSW 05:52:06 33° SE 05:54:30 10° ENE
[s.n.47349] 4.0 05:50:27 16° SSW 05:52:08 34° SE 05:54:35 10° ENE
[s.n.47367] 4.0 05:50:34 16° SSW 05:52:11 33° SE 05:54:36 10° ENE
[s.n.47373] 4.0 05:50:34 16° SSW 05:52:15 34° SE 05:54:41 10° ENE
[s.n.47377] 4.0 05:50:37 16° SSW 05:52:18 34° SE 05:54:44 10° ENE
[s.n.47371] 4.0 05:50:40 16° SSW 05:52:21 34° SE 05:54:47 10° ENE
[s.n.47362] 4.0 05:50:42 16° SSW 05:52:23 34° SE 05:54:50 10° ENE
[s.n.47363] 4.0 05:50:46 16° SSW 05:52:27 34° SE 05:54:54 10° ENE
[s.n.47374] 4.0 05:50:52 16° SSW 05:52:30 34° SE 05:54:56 10° ENE
[s.n.47357] 4.0 05:50:57 16° SSW 05:52:34 34° SE 05:54:59 10° ENE
Cosmos 2195 Rocket 4.4 05:46:24 10° NNW 05:52:35 66° W 05:58:41 10° S
[s.n.47390] 4.0 05:51:01 16° SSW 05:52:38 34° SE 05:55:02 10° ENE
[s.n.47387] 4.0 05:51:03 16° SSW 05:52:41 34° SE 05:55:05 10° ENE
[s.n.47375] 4.0 05:51:04 16° SSW 05:52:41 34° SE 05:55:06 10° ENE
[s.n.47376] 4.0 05:51:02 16° SSW 05:52:44 34° SE 05:55:11 10° ENE
[s.n.47366] 4.0 05:51:13 16° SSW 05:52:51 34° SE 05:55:16 10° ENE
[s.n.47352] 4.0 05:51:15 16° SSW 05:52:54 34° SE 05:55:20 10° ENE
[s.n.47364] 4.0 05:51:18 16° SSW 05:52:58 34° SE 05:55:24 10° ENE
[s.n.47388] 4.0 05:51:21 16° SSW 05:53:01 34° SE 05:55:26 10° ENE
[s.n.47397] 4.0 05:51:28 16° SSW 05:53:07 34° SE 05:55:31 10° ENE
Cosmos 2297 3.7 05:50:12 12° NNW 05:55:32 64° WSW 06:01:11 10° S
MOS 1 Rocket 3.5 05:51:50 10° S 05:56:33 48° W 06:01:00 10° NNW
Cosmos 1346 Rocket 2.7 05:55:07 10° NNW 05:59:04 64° W 06:03:00 10° S
SKYMED 2 4.3 05:55:15 10° SSW 05:59:05 30° W 06:01:10 21° NW
USA 238 DEB 3.6 05:52:35 10° SW 05:59:06 64° NW 06:05:57 10° NNE
USA 238 3.6 05:52:41 10° SW 05:59:12 65° NW 06:06:03 10° NNE
Cosmos 836 Rocket 4.4 05:54:04 10° SSW 05:59:19 80° WNW 06:04:36 10° NNE
Cosmos 1428 Rocket 4.4 05:55:41 10° NNW 06:01:54 68° W 06:08:02 10° S
SAR-Lupe-1 4.3 06:00:11 10° S 06:03:38 47° W 06:07:00 11° NNW
Cosmos 1758 Rocket 3.6 05:59:35 10° NNW 06:04:00 56° W 06:08:19 10° S
Cosmos 1689 Rocket 2.4 06:03:12 10° S 06:05:57 40° W 06:07:24 22° NW
ATLAS CENTAUR R/B 2.5 06:07:56 20° NW 06:08:09 20° NW 06:10:55 10° N
BREEZE M DEB (TANK) 1.5 06:11:50 21° WSW 06:13:13 80° NNW 06:17:23 10° ENE
Atlas Centaur 2 4.5 06:09:53 10° WSW 06:15:33 23° SSW 06:21:44 10° SSE
SL-19 R/B 4.3 06:12:07 10° NNE 06:15:45 67° ESE 06:18:54 10° S
Cosmos 2084 Rocket 4.5 06:13:52 18° WNW 06:16:19 30° WSW 06:20:16 10° S
Cosmos 1726 Rocket 3.4 06:12:37 10° SSW 06:16:55 77° W 06:21:16 10° N
Cosmos 2058 Rocket 3.5 06:14:35 10° S 06:18:57 68° E 06:23:22 10° NNE
Cosmos 1892 3.2 06:15:42 10° N 06:19:32 62° E 06:23:21 10° SSE
YAOGAN 6 2.9 06:16:05 10° N 06:19:37 44° WNW 06:23:07 10° SW
Cosmos 1603 4.3 06:14:19 10° S 06:19:51 63° ESE 06:25:26 10° NNE
Spot 2 3.9 06:16:22 10° NNE 06:20:26 90° WNW 06:24:35 10° SSW
FALCON 9 DEB 3.3 06:19:09 18° W 06:21:08 42° NNW 06:24:07 10° NE
GEOS 3 Rocket 3.7 06:16:21 10° SSE 06:21:42 77° SW 06:27:09 10° NW
USA 307 3.9 06:20:53 16° WNW 06:23:33 30° NNW 06:27:19 10° NE
USA 215 4.5 06:19:54 10° NE 06:25:09 27° N 06:30:24 10° NW
Cosmos 2279 Rocket 4.0 06:22:43 10° SSW 06:28:55 66° W 06:35:10 10° N
CZ-4B DEB 4.2 06:24:19 10° N 06:29:52 71° WNW 06:35:22 10° SSW
USA 305 4.0 06:26:57 14° WNW 06:29:54 27° NNW 06:33:34 10° NE
FALCON 9 DEB 3.4 06:27:20 13° W 06:29:55 40° NNW 06:32:55 10° NE
In-Cosmos 22 Rocket 4.1 06:24:32 10° NNW 06:30:00 84° W 06:35:20 10° S
PSLV R/B 4.2 06:26:37 10° N 06:30:27 44° WNW 06:34:20 10° SW
Cosmos 2292 Rocket 2.8 06:28:35 10° NNW 06:31:38 71° W 06:35:14 10° S
USA 308 4.0 06:29:28 13° WNW 06:32:37 28° NNW 06:36:20 10° NE
Cosmos 1408 3.1 06:29:40 10° N 06:33:15 63° E 06:36:51 10° SSE
SL-4 R/B 3.1 06:31:05 13° WNW 06:33:59 28° N 06:37:34 10° NE
Cosmos 2098 Rocket 3.9 06:30:43 10° NNW 06:35:40 35° W 06:39:39 10° SSW
Okean O Rocket 1.8 06:31:25 10° NNE 06:35:48 75° ESE 06:40:07 10° S
Cosmos 1825 Rocket 4.2 06:32:26 10° NNW 06:36:29 34° W 06:40:31 10° SSW
SMAP 3.0 06:33:14 10° N 06:37:54 75° WNW 06:42:33 10° SSW
Cosmos 2263 4.4 06:33:28 10° NNW 06:39:10 81° ENE 06:44:53 10° SSE
Cosmos 1943 Rocket 2.6 06:34:34 10° NW 06:39:54 43° WSW 06:45:13 10° S
CZ-2C R/B 2.6 06:35:54 10° S 06:41:06 66° WSW 06:46:28 10° NNW
H-2A R/B 2.6 06:37:36 10° N 06:42:06 66° WNW 06:46:32 10° SSW
USA 306 4.2 06:38:44 10° WNW 06:42:16 25° NNW 06:45:49 10° NE
Cosmos 1939 Rocket 3.4 06:40:52 10° NNE 06:44:44 62° E 06:48:32 10° S
Envisat 3.6 06:41:55 10° N 06:46:27 33° WNW 06:50:57 10° SW
Cosmos 773 Rocket 4.0 06:42:38 10° SSW 06:47:53 89° WNW 06:53:07 10° NNE
Cosmos 2369 Rocket 2.3 06:45:11 10° NNW 06:50:43 61° WSW 06:56:11 10° S
Meteor 2-10 Rocket 3.8 06:47:23 10° SSW 06:53:11 70° WNW 06:58:57 10° N
Cosmos 2228 4.2 06:50:39 10° WSW 06:53:55 21° WNW 06:57:13 10° NNW
NOSS 3-2 (A) 4.4 06:49:52 10° W 06:54:53 28° NNW 07:00:32 10° NNE
